FW1608 Weather Reports


time (UTC)temp
C
wind
direction
speed
KPH
gust
KPH
rain 1hr
cm
rain 24hr
cm
rain mn
cm
humidity
%
barometer
mb
20260505074542 8 27 0.0 0.0 0.23 4.52 1.80 98 1011.0
20260505073142 7 27 0.0 0.0 0.15 4.45 1.73 97 1011.0
20260505071542 8 26 0.0 0.0 0.15 4.37 1.65 97 1010.8
20260505070041 8 27 0.0 0.0 0.08 4.37 1.60 97 1010.7
20260505064544 8 24 0.0 0.0 0.05 4.32 1.55 97 1010.7
20260505063140 8 342 0.0 0.0 0.05 4.32 1.55 97 1010.7
20260505061552 8 340 0.0 1.6 0.03 4.29 1.52 97 1010.5
20260505060044 7 351 3.2 8.0 0.03 4.29 1.52 97 1010.5
20260505054600 7 336 3.2 8.0 0.03 4.29 1.52 97 1010.2
20260505053141 7 1 4.8 9.7 0.00 4.27 1.50 97 1010.3
20260505051545 7 351 3.2 6.4 0.00 4.27 1.50 97 1010.2
20260505041556 7 346 4.8 9.7 0.03 4.27 1.50 96 1010.4
20260505040049 7 183 0.0 4.8 0.08 4.27 1.50 96 1010.4
20260505034547 7 351 1.6 8.0 0.15 4.27 1.50 96 1010.7
20260505033146 8 258 0.0 6.4 0.23 4.27 1.50 96 1011.0
20260505031556 8 264 0.0 11.3 0.28 4.24 1.45 96 1011.1
20260505030041 8 280 4.8 16.1 0.28 4.19 1.42 96 1011.3
20260505024542 8 246 6.4 14.5 0.23 4.09 1.35 97 1011.7
20260505023140 8 313 6.4 12.9 0.23 4.04 1.27 97 1011.8
20260505021537 8 9 0.0 6.4 0.28 3.96 1.19 97 1011.8
20260505020036 8 124 1.6 12.9 0.33 3.91 1.14 97 1011.6
20260505014538 7 293 4.8 11.3 0.33 3.86 1.09 97 1011.9
20260505013135 7 336 8.0 12.9 0.33 3.81 1.04 96 1011.7
20260505011553 7 317 0.0 4.8 0.23 3.71 0.94 96 1011.9
20260505010051 7 316 3.2 9.7 0.15 3.58 0.81 96 1011.8
20260505004555 7 106 0.0 14.5 0.15 3.53 0.76 96 1012.1
20260505003149 7 320 0.0 3.2 0.13 3.48 0.71 96 1012.1
20260505001551 8 321 1.6 8.0 0.18 3.45 0.71 96 1012.1
20260505000100 8 5 0.0 0.0 0.23 3.43 0.66 96 1012.2
20260504234543 8 5 0.0 0.0 0.25 3.38 0.61 96 1012.4
20260504233144 8 7 0.0 8.0 0.38 3.35 0.61 96 1012.5
20260504231542 8 277 1.6 6.4 0.43 3.28 0.51 95 1012.8
20260504230057 8 274 4.8 6.4 0.43 3.33 0.43 95 1013.1
20260504224540 8 250 0.0 6.4 0.43 3.25 0.36 94 1013.2
20260504221602 8 277 4.8 19.3 0.18 2.97 0.08 93 1013.1
20260504220055 8 288 12.9 22.5 0.10 2.87 2.87 94 1013.1
20260504214553 8 267 3.2 12.9 0.03 2.82 2.82 96 1013.2
20260504213151 8 257 9.7 16.1 0.00 2.79 2.79 97 1013.2
20260504211547 8 275 1.6 6.4 0.00 2.79 2.79 97 1013.1
20260504210047 8 272 0.0 11.3 0.00 2.79 2.79 97 1013.0
20260504204543 8 213 3.2 8.0 0.00 2.79 2.79 97 1013.1
20260504203141 8 288 4.8 11.3 0.00 2.79 2.79 97 1013.3
20260504201544 8 329 3.2 8.0 0.00 2.79 2.79 97 1013.6
20260504200043 8 328 6.4 12.9 0.00 2.79 2.79 97 1013.6
20260504194542 8 356 4.8 12.9 0.00 2.79 2.79 97 1013.7
20260504193139 8 327 1.6 14.5 0.00 2.79 2.79 97 1013.8
20260504191555 8 322 0.0 6.4 0.00 2.79 2.79 97 1013.7
20260504190049 8 11 6.4 8.0 0.03 2.79 2.79 97 1013.9
20260504184548 8 1 0.0 6.4 0.05 2.79 2.79 97 1013.9
20260504183148 8 335 0.0 3.2 0.05 2.79 2.79 97 1014.0
20260504181548 8 331 0.0 6.4 0.05 2.79 2.79 97 1014.0
20260504180045 8 335 0.0 6.4 0.05 2.77 2.77 97 1014.0
20260504174545 8 329 4.8 9.7 0.05 2.77 2.77 97 1014.2
20260504173142 8 15 6.4 9.7 0.05 2.77 2.77 97 1013.9
20260504171541 8 290 3.2 6.4 0.05 2.74 2.74 97 1014.2
20260504081556 8 163 1.6 16.1 0.20 0.43 0.43 93 1015.1